Regional Weather Roundup
Issued by NWS

Home | Current Version | Previous Version | Text Only | Print | Product List | Glossary Off
Versions: 1 2 3 4 5 6 7 8 9 10 11 12 13 14 15 16 17 18 19 20 21 22 23 24 25 26 27 28 29 30 31 32 33 34 35 36 37 38 39 40 41 42 43 44 45 46 47 48 49 50

327
ASUS43 KLOT 302303
RWRIL

ILLINOIS REGIONAL WEATHER ROUNDUP
NATIONAL WEATHER SERVICE CHICAGO/ROMEOVILLE IL
600 PM CDT SUN APR 30 2017

NOTE: "FAIR" INDICATES FEW OR NO CLOUDS BELOW 12,000 FEET WITH NO
SIGNIFICANT WEATHER AND/OR OBSTRUCTIONS TO VISIBILITY.

* THESE STATIONS ARE NOT UNDER NWS QUALITY CONTROL. THEY ALSO MAY NOT
  REPORT WEATHER SUCH AS PRECIPITATION OR FOG.

ILZ001-002-007-009-015-016-024-010000-
NORTHWEST ILLINOIS

CITY           SKY/WX    TMP DP  RH WIND       PRES   REMARKS
MOLINE         CLOUDY    49  46  90 E17G28    29.60F
STERLING*      LGT RAIN  47  46  97 E21G28    29.65F
SAVANNA*       CLOUDY    46  45  93 NE15G21   29.68R
$$

ILZ003-004-008-010-011-017-018-010000-
NORTH CENTRAL ILLINOIS

CITY           SKY/WX    TMP DP  RH WIND       PRES   REMARKS
ROCKFORD       LGT RAIN  45  42  89 NE16      29.74S FOG
FREEPORT*      CLOUDY    44  43  95 E17G23    29.73F
ROCHELLE*      LGT RAIN  45  44  96 E20G25    29.70F
DE KALB*       LGT RAIN  44  43  97 E17       29.73F
PERU*          DRIZZLE   47  45  95 E21G30    29.65F
$$

ILZ005-006-012>014-019>023-010000-
NORTHEAST ILLINOIS

CITY           SKY/WX    TMP DP  RH WIND       PRES   REMARKS
CHICAGO-OHARE  DRZL/FOG  43  42  97 NE15      29.75F VSB 1/2
CHICAGO-MIDWAY LGT RAIN  44  44 100 NE12G21   29.75F FOG
AURORA         LGT RAIN  46  44  93 NE20      29.72F
LANSING*       DRIZZLE   46  46 100 NE9       29.74F
JOLIET*        DRIZZLE   46  46  97 NE10G16   29.71F
WAUKEGAN       CLOUDY    42  42 100 NE9       29.78R FOG
DUPAGE AIRPORT CLOUDY    44  44 100 NE16G22   29.73F FOG
KANKAKEE*      CLOUDY    49  49  98 NE9       29.69F FOG
WHEELING       LGT RAIN  42  42 100 NE8       29.78F VSB 1
MORRIS*        CLOUDY    46  45  95 NE8G16    29.69F
NORTHERLY ISL    N/A     43  42  97 N13         N/A
$$

LMZ740>746-010000-
SOUTHERN LAKE MICHIGAN

STATION/POSITION SKY/WX   TEMP    WIND        PRES    VSBY  WAVE
                          AIR SEA DIR/SP/G                  HT/PER
                          (F)     (DEG/KT/KT) (MB)    (MI)  (FT/S)
SOUTHERN BUOY              41 41   30/ 14/ 17 1008.8          4/ 6
HARRISON CRIB              43      30/ 16/ 18   N/A
BURNHAM HARBOR             43      20/ 13/ 14   N/A
CALUMET HARBOR             43     360/  9/ 11 1007.5F
BURNS HARBOR               46      40/  9/ 10 1007.8F
MICHIGAN CITY              47      30/  8/  8   N/A
MICHIGAN CITY 6N           46 49                N/A           3/ 5
ST. JOSEPH                 47 46   CALM  /  2 1008.7R         2/ 6
$$

ILZ025>027-034>036-040-047-049-050-058-095>099-010000-
WEST-CENTRAL ILLINOIS

CITY           SKY/WX    TMP DP  RH WIND       PRES   REMARKS
QUINCY         CLOUDY    64  62  93 E17G25    29.44F
GALESBURG*     LGT RAIN  50  50  99 E15G21    29.55F
MACOMB*        CLOUDY    53  53 100 E17       29.54F FOG
JACKSONVILLE*  CLOUDY    67  64  89 SE18      29.49F
PITTSFIELD*    CLOUDY    68  66  91 SE13G22   29.48S
$$

ILZ028>032-037-038-041>044-048-051>054-059>061-010000-
CENTRAL ILLINOIS

CITY           SKY/WX    TMP DP  RH WIND       PRES   REMARKS
PONTIAC        TSTM      51  51  98 NE20      29.66F
BLOOMINGTON    LGT RAIN  61  61 100 E9        29.63F
DECATUR        CLOUDY    67  67 100 SE15      29.60F
PEORIA         CLOUDY    53  53 100 E17       29.59F FOG
LACON*         DRIZZLE   50  50 100 E13G20    29.62F
LINCOLN*       CLOUDY    67  66  96 SE12      29.58F
SPRINGFIELD    CLOUDY    69  65  86 SE18G24   29.55F
TAYLORVILLE    CLOUDY    68  65  89 SE18G24   29.56F
$$

ILZ033-039-045-046-055>057-062-063-010000-
EAST-CENTRAL ILLINOIS

CITY           SKY/WX    TMP DP  RH WIND       PRES   REMARKS
CHAMPAIGN      CLOUDY    67  64  90 SE16      29.64F
RANTOUL*       CLOUDY    67  66  97 SE14      29.65S
MATTOON        CLOUDY    68  66  93 SE14G21   29.62F
$$

ILZ079-100>102-010000-
SOUTHWEST ILLINOIS

CITY           SKY/WX    TMP DP  RH WIND       PRES   REMARKS
ALTON          CLOUDY    68  66  94 SE16      29.51F
BELLEVILLE     LGT RAIN  68  68 100 E15G22    29.51F
CAHOKIA*       CLOUDY    70  66  87 SE20G28   29.49F
SPARTA*        RAIN      66  66 100 SE14G23   29.56F
$$

ILZ064>066-069>071-074>076-080>082-084>086-088>090-092>094-010000-
SOUTH-CENTRAL ILLINOIS

CITY           SKY/WX    TMP DP  RH WIND       PRES   REMARKS
CARBONDALE     CLOUDY    70  68  93 S18G28    29.58F
CAIRO*         CLOUDY    68  66  96 S15G23    29.63F
EFFINGHAM*     CLOUDY    70  69  96 SE13      29.63F
MARION         CLOUDY    72  70  94 S17       29.61F
MT. VERNON     CLOUDY    72  67  84 S16G23    29.61F
CENTRALIA*     LGT RAIN  69  69  98 S13       29.58F
SALEM*         LGT RAIN  71  67  87 SE10      29.59F
METROPOLIS*    LGT RAIN  71  68  91 S7        29.65F
$$

ILZ067-068-072-073-078-083-087-091-010000-
SOUTHEAST ILLINOIS

CITY           SKY/WX    TMP DP  RH WIND       PRES   REMARKS
LAWRENCEVILLE  CLOUDY    71  69  93 SE12      29.66F
FLORA*         CLOUDY    73  68  87 S16       29.63F
FAIRFIELD*     CLOUDY    73  68  86 S10G18    29.63S
HARRISBURG*    CLOUDY    72  68  87 S14       29.64F
ROBINSON*      CLOUDY    70  67  91 SE12G17   29.67F
CARMI*         CLOUDY    73  69  88 SE17G23   29.65S
$$

ABBREVIATIONS USED IN REMARKS
   TC - TEMPERATURE IN CELSIUS
  WCI - WIND CHILL INDEX
   HX - HEAT INDEX
  VSB - VISIBILITY
$$





USA.gov is the U.S. government's official web portal to all federal, state and local government web resources and services.